| time (UTC) | temp F | wind direction | speed knots | gust knots | rain 1hr in | rain 24hr in | rain mn in | humidity % | barometer mb |
| 20260509082247 | 60 | 335 | 0.0 | 0.0 | 0.00 | 0.00 | 0.00 | 91 | 1016.6 |
| 20260509081744 | 60 | 335 | 0.0 | 0.0 | 0.00 | 0.00 | 0.00 | 91 | 1016.6 |
| 20260509081242 | 60 | 332 | 0.0 | 0.0 | 0.00 | 0.00 | 0.00 | 91 | 1016.6 |
| 20260509080740 | 60 | 328 | 0.0 | 0.9 | 0.00 | 0.00 | 0.00 | 91 | 1016.6 |
| 20260509080237 | 60 | 323 | 0.0 | 0.0 | 0.00 | 0.00 | 0.00 | 91 | 1017.0 |
| 20260509075735 | 60 | 330 | 0.0 | 0.9 | 0.00 | 0.00 | 0.00 | 91 | 1017.0 |
| 20260509075232 | 60 | 330 | 0.0 | 0.0 | 0.00 | 0.00 | 0.00 | 91 | 1017.0 |
| 20260509074729 | 60 | 332 | 0.0 | 0.0 | 0.00 | 0.00 | 0.00 | 91 | 1016.6 |
| 20260509074227 | 60 | 330 | 0.0 | 0.0 | 0.00 | 0.00 | 0.00 | 91 | 1017.0 |
| 20260509073723 | 60 | 336 | 0.0 | 0.0 | 0.00 | 0.00 | 0.00 | 91 | 1017.0 |
| 20260509073219 | 60 | 341 | 0.0 | 0.0 | 0.00 | 0.00 | 0.00 | 91 | 1017.0 |
| 20260509072716 | 60 | 345 | 0.0 | 0.0 | 0.00 | 0.00 | 0.00 | 91 | 1017.0 |
| 20260509072213 | 60 | 348 | 0.0 | 0.0 | 0.00 | 0.00 | 0.00 | 91 | 1017.0 |
| 20260509071709 | 60 | 344 | 0.0 | 0.0 | 0.00 | 0.00 | 0.00 | 91 | 1017.0 |
| 20260509071207 | 60 | 338 | 0.0 | 0.0 | 0.00 | 0.00 | 0.00 | 91 | 1017.3 |
| 20260509070704 | 59 | 335 | 0.0 | 0.0 | 0.00 | 0.00 | 0.00 | 91 | 1017.0 |
| 20260509070200 | 59 | 337 | 0.0 | 0.9 | 0.00 | 0.00 | 0.00 | 91 | 1017.0 |
| 20260509065656 | 59 | 321 | 0.9 | 0.9 | 0.00 | 0.00 | 0.00 | 91 | 1017.3 |
| 20260509065152 | 59 | 315 | 0.0 | 0.0 | 0.00 | 0.00 | 0.00 | 91 | 1017.0 |
| 20260509064649 | 59 | 324 | 0.0 | 1.7 | 0.00 | 0.00 | 0.00 | 91 | 1017.0 |
| 20260509064147 | 59 | 302 | 0.9 | 0.9 | 0.00 | 0.00 | 0.00 | 91 | 1017.0 |
| 20260509063644 | 60 | 338 | 0.0 | 0.0 | 0.00 | 0.00 | 0.00 | 91 | 1017.0 |
| 20260509063140 | 59 | 325 | 0.0 | 0.9 | 0.00 | 0.00 | 0.00 | 91 | 1017.3 |
| 20260509062637 | 60 | 297 | 0.0 | 0.0 | 0.00 | 0.00 | 0.00 | 91 | 1017.0 |
| 20260509062135 | 60 | 315 | 0.9 | 0.9 | 0.00 | 0.00 | 0.00 | 91 | 1017.0 |
| 20260509061631 | 60 | 326 | 0.0 | 0.0 | 0.00 | 0.00 | 0.00 | 91 | 1017.3 |
| 20260509061129 | 60 | 335 | 0.0 | 0.0 | 0.00 | 0.00 | 0.00 | 91 | 1017.0 |
| 20260509060626 | 59 | 346 | 0.0 | 0.0 | 0.00 | 0.00 | 0.00 | 91 | 1017.0 |
| 20260509060122 | 60 | 325 | 0.0 | 0.0 | 0.00 | 0.00 | 0.00 | 91 | 1017.3 |
| 20260509055618 | 59 | 341 | 0.0 | 0.0 | 0.00 | 0.00 | 0.00 | 91 | 1017.3 |
| 20260509055114 | 59 | 55 | 0.0 | 0.0 | 0.00 | 0.00 | 0.00 | 91 | 1017.3 |
| 20260509054611 | 59 | 80 | 0.0 | 0.9 | 0.00 | 0.00 | 0.00 | 91 | 1017.3 |
| 20260509054108 | 60 | 259 | 0.9 | 1.7 | 0.00 | 0.00 | 0.00 | 91 | 1017.3 |
| 20260509053607 | 60 | 280 | 0.9 | 1.7 | 0.00 | 0.00 | 0.00 | 91 | 1017.3 |
| 20260509053103 | 60 | 333 | 0.9 | 0.9 | 0.00 | 0.00 | 0.00 | 91 | 1017.0 |
| 20260509052601 | 60 | 262 | 0.0 | 0.9 | 0.00 | 0.00 | 0.00 | 91 | 1017.3 |
| 20260509052059 | 60 | 281 | 0.9 | 0.9 | 0.00 | 0.00 | 0.00 | 90 | 1017.3 |
| 20260509051556 | 60 | 251 | 0.0 | 0.9 | 0.00 | 0.00 | 0.00 | 90 | 1017.3 |
| 20260509051053 | 60 | 314 | 0.0 | 0.0 | 0.00 | 0.00 | 0.00 | 90 | 1017.0 |
| 20260509050550 | 60 | 239 | 0.9 | 1.7 | 0.00 | 0.00 | 0.00 | 90 | 1017.3 |
| 20260509050046 | 60 | 321 | 0.9 | 0.9 | 0.00 | 0.00 | 0.00 | 90 | 1017.0 |
| 20260509045544 | 60 | 333 | 0.0 | 0.9 | 0.00 | 0.00 | 0.00 | 90 | 1017.3 |
| 20260509045041 | 60 | 326 | 0.0 | 0.9 | 0.00 | 0.00 | 0.00 | 90 | 1017.3 |
| 20260509044538 | 60 | 330 | 0.0 | 1.7 | 0.00 | 0.00 | 0.00 | 90 | 1017.0 |
| 20260509044036 | 60 | 251 | 0.9 | 1.7 | 0.00 | 0.00 | 0.00 | 90 | 1017.3 |
| 20260509043532 | 60 | 272 | 0.0 | 0.9 | 0.00 | 0.00 | 0.00 | 90 | 1017.0 |
| 20260509043028 | 60 | 312 | 0.9 | 0.9 | 0.00 | 0.00 | 0.00 | 90 | 1017.0 |
| 20260509042524 | 60 | 327 | 0.0 | 0.9 | 0.00 | 0.00 | 0.00 | 89 | 1017.0 |
| 20260509042020 | 60 | 278 | 0.9 | 2.6 | 0.00 | 0.00 | 0.00 | 89 | 1017.0 |
| 20260509041517 | 60 | 163 | 0.9 | 0.9 | 0.00 | 0.00 | 0.00 | 89 | 1017.0 |
| 20260509041015 | 60 | 275 | 0.9 | 1.7 | 0.00 | 0.00 | 0.00 | 89 | 1017.0 |
| 20260509040513 | 60 | 332 | 0.0 | 0.9 | 0.00 | 0.00 | 0.00 | 89 | 1017.0 |
| 20260509040010 | 60 | 235 | 1.7 | 1.7 | 0.00 | 0.00 | 0.00 | 88 | 1017.0 |
| 20260509035507 | 60 | 299 | 0.9 | 1.7 | 0.00 | 0.00 | 0.00 | 89 | 1017.0 |
| 20260509035003 | 61 | 299 | 0.9 | 1.7 | 0.00 | 0.00 | 0.00 | 88 | 1017.0 |
| 20260509034502 | 61 | 319 | 0.0 | 0.9 | 0.00 | 0.00 | 0.00 | 89 | 1016.6 |
| 20260509033958 | 61 | 286 | 0.9 | 1.7 | 0.00 | 0.00 | 0.00 | 89 | 1016.6 |
| 20260509033454 | 60 | 325 | 0.9 | 1.7 | 0.00 | 0.00 | 0.00 | 89 | 1016.6 |
| 20260509032951 | 61 | 232 | 0.9 | 1.7 | 0.00 | 0.00 | 0.00 | 89 | 1016.6 |
| 20260509032449 | 60 | 334 | 0.9 | 1.7 | 0.00 | 0.00 | 0.00 | 89 | 1016.6 |
| 20260509031946 | 61 | 336 | 0.0 | 2.6 | 0.00 | 0.00 | 0.00 | 88 | 1016.3 |
| 20260509031443 | 61 | 342 | 0.0 | 0.9 | 0.00 | 0.00 | 0.00 | 88 | 1016.3 |
| 20260509030941 | 61 | 160 | 0.0 | 2.6 | 0.00 | 0.00 | 0.00 | 88 | 1016.3 |
| 20260509030439 | 61 | 343 | 0.0 | 0.9 | 0.00 | 0.00 | 0.00 | 88 | 1016.0 |
| 20260509025935 | 61 | 237 | 0.9 | 1.7 | 0.00 | 0.00 | 0.00 | 88 | 1016.0 |
| 20260509025431 | 61 | 331 | 0.9 | 0.9 | 0.00 | 0.00 | 0.00 | 88 | 1016.3 |
| 20260509024926 | 61 | 250 | 1.7 | 3.5 | 0.00 | 0.00 | 0.00 | 88 | 1016.3 |
| 20260509024423 | 61 | 340 | 0.0 | 0.0 | 0.00 | 0.00 | 0.00 | 88 | 1016.3 |
| 20260509023920 | 61 | 330 | 1.7 | 3.5 | 0.00 | 0.00 | 0.00 | 87 | 1016.3 |
| 20260509023417 | 62 | 256 | 1.7 | 2.6 | 0.00 | 0.00 | 0.00 | 87 | 1016.0 |
| 20260509022914 | 62 | 250 | 0.9 | 1.7 | 0.00 | 0.00 | 0.00 | 87 | 1016.0 |
| 20260509022411 | 62 | 326 | 0.9 | 2.6 | 0.00 | 0.00 | 0.00 | 87 | 1016.0 |
| 20260509021908 | 62 | 201 | 1.7 | 2.6 | 0.00 | 0.00 | 0.00 | 87 | 1016.0 |
| 20260509021405 | 62 | 278 | 0.0 | 3.5 | 0.00 | 0.00 | 0.00 | 87 | 1016.0 |
| 20260509020902 | 62 | 293 | 1.7 | 1.7 | 0.00 | 0.00 | 0.00 | 87 | 1016.0 |
| 20260509020401 | 62 | 322 | 0.9 | 2.6 | 0.00 | 0.00 | 0.00 | 87 | 1016.0 |
| 20260509015857 | 62 | 325 | 0.0 | 0.9 | 0.00 | 0.00 | 0.00 | 87 | 1016.0 |
| 20260509015356 | 62 | 280 | 2.6 | 5.2 | 0.00 | 0.00 | 0.00 | 86 | 1016.0 |
| 20260509014852 | 62 | 323 | 0.9 | 2.6 | 0.00 | 0.00 | 0.00 | 86 | 1016.0 |
| 20260509014349 | 62 | 333 | 0.9 | 2.6 | 0.00 | 0.00 | 0.00 | 86 | 1016.0 |
| 20260509013845 | 62 | 301 | 0.9 | 3.5 | 0.00 | 0.00 | 0.00 | 86 | 1016.0 |
| 20260509013342 | 62 | 348 | 1.7 | 3.5 | 0.00 | 0.00 | 0.00 | 85 | 1016.0 |
| 20260509012838 | 63 | 228 | 1.7 | 2.6 | 0.00 | 0.00 | 0.00 | 85 | 1016.0 |
| 20260509012335 | 63 | 301 | 0.9 | 3.5 | 0.00 | 0.00 | 0.00 | 85 | 1016.0 |
| 20260509011832 | 63 | 241 | 1.7 | 3.5 | 0.00 | 0.00 | 0.00 | 85 | 1016.0 |
| 20260509011330 | 63 | 265 | 2.6 | 5.2 | 0.00 | 0.00 | 0.00 | 85 | 1016.0 |
| 20260509010827 | 63 | 270 | 2.6 | 3.5 | 0.00 | 0.00 | 0.00 | 85 | 1016.0 |
| 20260509010325 | 63 | 227 | 1.7 | 2.6 | 0.00 | 0.00 | 0.00 | 84 | 1016.3 |
| 20260509005821 | 63 | 232 | 2.6 | 5.2 | 0.00 | 0.00 | 0.00 | 83 | 1016.0 |
| 20260509005319 | 63 | 257 | 2.6 | 5.2 | 0.00 | 0.00 | 0.00 | 83 | 1016.0 |
| 20260509004814 | 64 | 310 | 0.9 | 3.5 | 0.00 | 0.00 | 0.00 | 84 | 1016.0 |
| 20260509004310 | 64 | 297 | 1.7 | 3.5 | 0.00 | 0.00 | 0.00 | 83 | 1016.0 |
| 20260509003808 | 64 | 290 | 1.7 | 5.2 | 0.00 | 0.00 | 0.00 | 83 | 1016.0 |
| 20260509003306 | 64 | 211 | 2.6 | 7.0 | 0.00 | 0.00 | 0.00 | 83 | 1016.0 |
| 20260509002803 | 64 | 299 | 1.7 | 7.0 | 0.00 | 0.00 | 0.00 | 83 | 1016.0 |
| 20260509002301 | 64 | 305 | 2.6 | 6.1 | 0.00 | 0.00 | 0.00 | 82 | 1016.0 |
| 20260509001758 | 64 | 234 | 2.6 | 6.1 | 0.00 | 0.00 | 0.00 | 82 | 1016.0 |
| 20260509001254 | 64 | 219 | 4.3 | 6.1 | 0.00 | 0.00 | 0.00 | 82 | 1016.0 |
| 20260509000751 | 64 | 242 | 3.5 | 5.2 | 0.00 | 0.00 | 0.00 | 82 | 1016.0 |
| 20260509000248 | 65 | 316 | 1.7 | 5.2 | 0.00 | 0.00 | 0.00 | 82 | 1016.0 |
| 20260508235745 | 65 | 296 | 1.7 | 5.2 | 0.00 | 0.00 | 0.00 | 81 | 1016.0 |
| 20260508235242 | 65 | 208 | 3.5 | 6.1 | 0.00 | 0.00 | 0.00 | 81 | 1016.0 |
| 20260508234739 | 65 | 253 | 1.7 | 6.1 | 0.00 | 0.00 | 0.00 | 82 | 1016.0 |
| 20260508234235 | 66 | 249 | 2.6 | 5.2 | 0.00 | 0.00 | 0.00 | 80 | 1016.0 |
| 20260508233729 | 66 | 226 | 3.5 | 5.2 | 0.00 | 0.00 | 0.00 | 79 | 1016.3 |
| 20260508233227 | 66 | 211 | 2.6 | 5.2 | 0.00 | 0.00 | 0.00 | 79 | 1015.6 |
| 20260508232724 | 66 | 240 | 1.7 | 3.5 | 0.00 | 0.00 | 0.00 | 80 | 1016.0 |
| 20260508232220 | 66 | 255 | 3.5 | 5.2 | 0.00 | 0.00 | 0.00 | 78 | 1016.0 |
| 20260508231718 | 67 | 336 | 0.9 | 1.7 | 0.00 | 0.00 | 0.00 | 77 | 1016.3 |
| 20260508231215 | 68 | 272 | 2.6 | 3.5 | 0.00 | 0.00 | 0.00 | 76 | 1016.3 |
| 20260508230712 | 67 | 340 | 0.9 | 5.2 | 0.00 | 0.00 | 0.00 | 78 | 1016.3 |
| 20260508230208 | 68 | 257 | 2.6 | 6.1 | 0.00 | 0.00 | 0.00 | 75 | 1016.3 |
| 20260508225706 | 67 | 200 | 1.7 | 6.1 | 0.00 | 0.00 | 0.00 | 77 | 1016.6 |
| 20260508225202 | 68 | 281 | 5.2 | 7.0 | 0.00 | 0.00 | 0.00 | 74 | 1016.6 |
| 20260508224700 | 69 | 338 | 1.7 | 6.1 | 0.00 | 0.00 | 0.00 | 74 | 1016.3 |
| 20260508224157 | 69 | 324 | 1.7 | 2.6 | 0.00 | 0.00 | 0.00 | 74 | 1016.6 |
| 20260508223655 | 69 | 268 | 2.6 | 3.5 | 0.00 | 0.00 | 0.00 | 73 | 1017.0 |
| 20260508223152 | 69 | 332 | 1.7 | 5.2 | 0.00 | 0.00 | 0.00 | 73 | 1016.6 |
| 20260508222649 | 69 | 326 | 0.9 | 5.2 | 0.00 | 0.00 | 0.00 | 72 | 1016.6 |
| 20260508222147 | 69 | 318 | 2.6 | 6.1 | 0.00 | 0.00 | 0.00 | 73 | 1016.6 |
| 20260508221642 | 70 | 19 | 3.5 | 3.5 | 0.00 | 0.00 | 0.00 | 70 | 1017.0 |
| 20260508221138 | 71 | 328 | 0.9 | 2.6 | 0.00 | 0.00 | 0.00 | 69 | 1016.6 |
| 20260508220635 | 70 | 329 | 0.9 | 3.5 | 0.00 | 0.00 | 0.00 | 71 | 1017.0 |
| 20260508220132 | 71 | 322 | 1.7 | 5.2 | 0.00 | 0.00 | 0.00 | 71 | 1017.0 |
| 20260508215628 | 69 | 243 | 1.7 | 5.2 | 0.00 | 0.00 | 0.00 | 73 | 1017.0 |
| 20260508215125 | 70 | 271 | 2.6 | 6.1 | 0.00 | 0.00 | 0.00 | 71 | 1017.0 |
| 20260508214622 | 71 | 276 | 3.5 | 6.1 | 0.00 | 0.00 | 0.00 | 69 | 1017.3 |
| 20260508214119 | 69 | 306 | 2.6 | 3.5 | 0.00 | 0.00 | 0.00 | 72 | 1017.3 |
| 20260508213616 | 70 | 301 | 0.9 | 5.2 | 0.00 | 0.00 | 0.00 | 72 | 1017.3 |
| 20260508213112 | 70 | 317 | 0.9 | 1.7 | 0.00 | 0.00 | 0.00 | 71 | 1017.3 |
| 20260508212609 | 70 | 247 | 2.6 | 5.2 | 0.00 | 0.00 | 0.00 | 71 | 1017.3 |
| 20260508212105 | 70 | 238 | 3.5 | 5.2 | 0.00 | 0.00 | 0.00 | 71 | 1017.3 |
| 20260508211600 | 72 | 244 | 2.6 | 2.6 | 0.00 | 0.00 | 0.00 | 68 | 1017.3 |
| 20260508211057 | 72 | 344 | 0.0 | 2.6 | 0.00 | 0.00 | 0.00 | 69 | 1017.3 |
| 20260508210554 | 71 | 313 | 1.7 | 2.6 | 0.00 | 0.00 | 0.00 | 70 | 1017.6 |
| 20260508210051 | 71 | 299 | 1.7 | 5.2 | 0.00 | 0.00 | 0.00 | 69 | 1017.6 |
| 20260508205548 | 70 | 334 | 0.9 | 3.5 | 0.00 | 0.00 | 0.00 | 72 | 1017.6 |
| 20260508205044 | 70 | 309 | 4.3 | 7.0 | 0.00 | 0.00 | 0.00 | 71 | 1017.6 |
| 20260508204541 | 70 | 298 | 2.6 | 6.1 | 0.00 | 0.00 | 0.00 | 71 | 1017.6 |
| 20260508204037 | 69 | 326 | 0.9 | 6.1 | 0.00 | 0.00 | 0.00 | 75 | 1017.6 |
| 20260508203533 | 69 | 294 | 1.7 | 3.5 | 0.00 | 0.00 | 0.00 | 74 | 1018.0 |
| 20260508203029 | 69 | 340 | 2.6 | 3.5 | 0.00 | 0.00 | 0.00 | 73 | 1017.6 |
| 20260508202526 | 68 | 270 | 3.5 | 6.1 | 0.00 | 0.00 | 0.00 | 75 | 1018.0 |
| 20260508202023 | 69 | 323 | 1.7 | 6.1 | 0.00 | 0.00 | 0.00 | 73 | 1018.0 |
| 20260508201520 | 69 | 238 | 1.7 | 3.5 | 0.00 | 0.00 | 0.00 | 74 | 1018.0 |
| 20260508201016 | 68 | 221 | 3.5 | 6.1 | 0.00 | 0.00 | 0.00 | 74 | 1018.0 |
| 20260508200514 | 69 | 215 | 1.7 | 5.2 | 0.00 | 0.00 | 0.00 | 74 | 1018.0 |
| 20260508200009 | 69 | 269 | 2.6 | 3.5 | 0.00 | 0.00 | 0.00 | 74 | 1018.0 |
| 20260508195506 | 70 | 227 | 3.5 | 7.0 | 0.00 | 0.00 | 0.00 | 72 | 1018.3 |
| 20260508195003 | 69 | 267 | 3.5 | 7.0 | 0.00 | 0.00 | 0.00 | 75 | 1018.3 |
| 20260508194500 | 69 | 284 | 2.6 | 6.1 | 0.00 | 0.00 | 0.00 | 74 | 1018.3 |
| 20260508193957 | 68 | 276 | 2.6 | 5.2 | 0.00 | 0.00 | 0.00 | 75 | 1018.0 |
| 20260508193453 | 69 | 212 | 1.7 | 5.2 | 0.00 | 0.00 | 0.00 | 74 | 1018.3 |
| 20260508192949 | 69 | 240 | 1.7 | 3.5 | 0.00 | 0.00 | 0.00 | 73 | 1018.3 |
| 20260508192446 | 68 | 358 | 1.7 | 2.6 | 0.00 | 0.00 | 0.00 | 74 | 1018.3 |
| 20260508191943 | 68 | 279 | 2.6 | 3.5 | 0.00 | 0.00 | 0.00 | 75 | 1018.3 |
| 20260508191441 | 68 | 300 | 0.9 | 2.6 | 0.00 | 0.00 | 0.00 | 77 | 1018.7 |
| 20260508190937 | 67 | 191 | 2.6 | 3.5 | 0.00 | 0.00 | 0.00 | 77 | 1018.7 |
| 20260508190435 | 67 | 307 | 1.7 | 2.6 | 0.00 | 0.00 | 0.00 | 77 | 1018.7 |
| 20260508185931 | 66 | 237 | 1.7 | 5.2 | 0.00 | 0.00 | 0.00 | 79 | 1018.7 |
| 20260508185428 | 66 | 291 | 1.7 | 2.6 | 0.00 | 0.00 | 0.00 | 79 | 1018.7 |
| 20260508184925 | 66 | 258 | 2.6 | 3.5 | 0.00 | 0.00 | 0.00 | 79 | 1018.7 |
| 20260508184423 | 65 | 227 | 1.7 | 3.5 | 0.00 | 0.00 | 0.00 | 81 | 1018.7 |
| 20260508183919 | 66 | 258 | 2.6 | 5.2 | 0.00 | 0.00 | 0.00 | 79 | 1018.7 |
| 20260508183416 | 65 | 187 | 0.9 | 2.6 | 0.00 | 0.00 | 0.00 | 81 | 1019.0 |
| 20260508182911 | 65 | 212 | 1.7 | 3.5 | 0.00 | 0.00 | 0.00 | 81 | 1019.0 |
| 20260508182409 | 65 | 273 | 2.6 | 5.2 | 0.00 | 0.00 | 0.00 | 81 | 1018.7 |
| 20260508181904 | 65 | 260 | 2.6 | 6.1 | 0.00 | 0.00 | 0.00 | 81 | 1018.7 |
| 20260508181401 | 65 | 189 | 1.7 | 5.2 | 0.00 | 0.00 | 0.00 | 81 | 1018.7 |
| 20260508180858 | 66 | 266 | 1.7 | 2.6 | 0.00 | 0.00 | 0.00 | 80 | 1018.7 |
| 20260508180355 | 65 | 308 | 0.9 | 2.6 | 0.00 | 0.00 | 0.00 | 81 | 1019.0 |
| 20260508175850 | 65 | 324 | 0.9 | 3.5 | 0.00 | 0.00 | 0.00 | 81 | 1019.0 |
| 20260508175348 | 66 | 332 | 0.9 | 2.6 | 0.00 | 0.00 | 0.00 | 81 | 1019.0 |
| 20260508174846 | 65 | 252 | 0.9 | 2.6 | 0.00 | 0.00 | 0.00 | 81 | 1018.7 |
| 20260508174343 | 65 | 325 | 0.9 | 1.7 | 0.00 | 0.00 | 0.00 | 81 | 1019.0 |
| 20260508173839 | 65 | 314 | 0.9 | 1.7 | 0.00 | 0.00 | 0.00 | 80 | 1019.0 |
| 20260508173336 | 65 | 249 | 0.9 | 1.7 | 0.00 | 0.00 | 0.00 | 81 | 1019.0 |
| 20260508172832 | 66 | 205 | 2.6 | 2.6 | 0.00 | 0.00 | 0.00 | 80 | 1019.0 |
| 20260508172330 | 66 | 101 | 1.7 | 1.7 | 0.00 | 0.00 | 0.00 | 78 | 1019.0 |
| 20260508171826 | 65 | 346 | 0.0 | 0.9 | 0.00 | 0.00 | 0.00 | 79 | 1019.3 |
| 20260508171322 | 65 | 13 | 0.0 | 0.9 | 0.00 | 0.00 | 0.00 | 79 | 1019.3 |
| 20260508170819 | 65 | 337 | 0.0 | 0.0 | 0.00 | 0.00 | 0.00 | 79 | 1019.0 |
| 20260508170318 | 65 | 322 | 1.7 | 1.7 | 0.00 | 0.00 | 0.00 | 79 | 1019.3 |
| 20260508165814 | 66 | 358 | 0.0 | 0.0 | 0.00 | 0.00 | 0.00 | 79 | 1019.3 |
| 20260508165311 | 65 | 345 | 0.0 | 0.0 | 0.00 | 0.00 | 0.00 | 79 | 1019.0 |
| 20260508164807 | 65 | 348 | 0.0 | 0.0 | 0.00 | 0.00 | 0.00 | 81 | 1019.0 |
| 20260508164304 | 64 | 339 | 0.0 | 0.0 | 0.00 | 0.00 | 0.00 | 81 | 1019.0 |
| 20260508163802 | 64 | 6 | 0.9 | 1.7 | 0.00 | 0.00 | 0.00 | 81 | 1019.0 |
| 20260508163259 | 64 | 351 | 0.0 | 1.7 | 0.00 | 0.00 | 0.00 | 81 | 1019.0 |
| 20260508162755 | 64 | 350 | 0.0 | 0.9 | 0.00 | 0.00 | 0.00 | 82 | 1018.7 |
| 20260508162252 | 64 | 17 | 0.9 | 1.7 | 0.00 | 0.00 | 0.00 | 81 | 1019.0 |
| 20260508161749 | 64 | 352 | 0.0 | 0.0 | 0.00 | 0.00 | 0.00 | 82 | 1018.7 |
| 20260508161246 | 63 | 352 | 0.0 | 0.0 | 0.00 | 0.00 | 0.00 | 82 | 1019.0 |
| 20260508160744 | 63 | 345 | 0.0 | 0.0 | 0.00 | 0.00 | 0.00 | 83 | 1018.7 |
| 20260508160242 | 63 | 26 | 0.9 | 2.6 | 0.00 | 0.00 | 0.00 | 83 | 1019.0 |
| 20260508155738 | 63 | 347 | 0.0 | 0.9 | 0.00 | 0.00 | 0.00 | 83 | 1019.0 |
| 20260508155235 | 63 | 339 | 0.0 | 0.0 | 0.00 | 0.00 | 0.00 | 83 | 1019.0 |
| 20260508154732 | 63 | 354 | 0.0 | 0.0 | 0.00 | 0.00 | 0.00 | 83 | 1019.0 |
| 20260508154230 | 63 | 352 | 0.0 | 0.0 | 0.00 | 0.00 | 0.00 | 83 | 1019.0 |
| 20260508153726 | 62 | 10 | 0.0 | 0.0 | 0.00 | 0.00 | 0.00 | 84 | 1019.0 |
| 20260508153223 | 62 | 22 | 0.0 | 0.9 | 0.00 | 0.00 | 0.00 | 84 | 1018.7 |
| 20260508152720 | 62 | 49 | 0.9 | 1.7 | 0.00 | 0.00 | 0.00 | 84 | 1019.0 |
| 20260508152215 | 62 | 354 | 0.9 | 2.6 | 0.00 | 0.00 | 0.00 | 84 | 1019.3 |
| 20260508151712 | 62 | 342 | 0.0 | 0.9 | 0.00 | 0.00 | 0.00 | 85 | 1019.0 |
| 20260508151209 | 62 | 349 | 0.0 | 0.9 | 0.00 | 0.00 | 0.00 | 85 | 1019.0 |
| 20260508150706 | 62 | 8 | 2.6 | 3.5 | 0.00 | 0.00 | 0.00 | 85 | 1019.0 |
| 20260508150202 | 62 | 352 | 0.0 | 3.5 | 0.00 | 0.00 | 0.00 | 85 | 1019.0 |
| 20260508145658 | 62 | 76 | 0.0 | 0.9 | 0.00 | 0.00 | 0.00 | 85 | 1019.0 |
| 20260508145154 | 62 | 14 | 0.0 | 1.7 | 0.00 | 0.00 | 0.00 | 85 | 1018.7 |
| 20260508144652 | 62 | 354 | 0.9 | 2.6 | 0.00 | 0.00 | 0.00 | 85 | 1019.0 |
| 20260508144149 | 62 | 61 | 0.9 | 2.6 | 0.00 | 0.00 | 0.00 | 86 | 1018.7 |
| 20260508143647 | 62 | 74 | 0.9 | 1.7 | 0.00 | 0.00 | 0.00 | 86 | 1019.3 |
| 20260508143144 | 61 | 352 | 0.9 | 2.6 | 0.00 | 0.00 | 0.00 | 86 | 1019.0 |
| 20260508142640 | 61 | 348 | 0.0 | 0.9 | 0.00 | 0.00 | 0.00 | 86 | 1019.0 |
| 20260508142137 | 61 | 1 | 0.0 | 1.7 | 0.00 | 0.00 | 0.00 | 86 | 1019.3 |
| 20260508141633 | 61 | 353 | 0.0 | 1.7 | 0.00 | 0.00 | 0.00 | 86 | 1019.0 |
| 20260508141131 | 61 | 56 | 0.0 | 0.9 | 0.00 | 0.00 | 0.00 | 86 | 1019.0 |
| 20260508140628 | 61 | 352 | 0.0 | 0.9 | 0.00 | 0.00 | 0.00 | 86 | 1019.0 |
| 20260508140125 | 61 | 350 | 0.0 | 0.0 | 0.00 | 0.00 | 0.00 | 86 | 1019.0 |
| 20260508135620 | 61 | 349 | 0.0 | 0.0 | 0.00 | 0.00 | 0.00 | 87 | 1019.0 |
| 20260508135116 | 61 | 26 | 0.0 | 0.9 | 0.00 | 0.00 | 0.00 | 86 | 1018.7 |
| 20260508134614 | 61 | 18 | 0.0 | 0.9 | 0.00 | 0.00 | 0.00 | 86 | 1019.0 |
| 20260508134111 | 61 | 340 | 0.0 | 0.9 | 0.00 | 0.00 | 0.00 | 86 | 1019.0 |
| 20260508133607 | 61 | 330 | 0.0 | 0.9 | 0.00 | 0.00 | 0.00 | 86 | 1018.7 |
| 20260508133105 | 61 | 60 | 0.9 | 1.7 | 0.00 | 0.00 | 0.00 | 86 | 1018.7 |
| 20260508132603 | 61 | 53 | 0.9 | 0.9 | 0.00 | 0.00 | 0.00 | 86 | 1018.7 |
| 20260508132059 | 61 | 24 | 0.0 | 0.0 | 0.00 | 0.00 | 0.00 | 86 | 1018.7 |
| 20260508131555 | 61 | 74 | 0.9 | 1.7 | 0.00 | 0.00 | 0.00 | 86 | 1018.7 |
| 20260508131052 | 61 | 2 | 0.0 | 2.6 | 0.00 | 0.00 | 0.00 | 86 | 1018.7 |
| 20260508130548 | 61 | 22 | 0.0 | 1.7 | 0.00 | 0.00 | 0.00 | 86 | 1018.7 |
| 20260508130045 | 61 | 351 | 0.0 | 0.0 | 0.00 | 0.00 | 0.00 | 86 | 1018.7 |
| 20260508125540 | 61 | 357 | 0.0 | 0.9 | 0.00 | 0.00 | 0.00 | 86 | 1018.7 |
| 20260508125038 | 61 | 358 | 0.0 | 0.9 | 0.00 | 0.00 | 0.00 | 86 | 1018.3 |
| 20260508124536 | 61 | 75 | 0.9 | 1.7 | 0.00 | 0.00 | 0.00 | 86 | 1018.0 |
| 20260508124033 | 61 | 359 | 0.0 | 0.0 | 0.00 | 0.00 | 0.00 | 86 | 1018.3 |
| 20260508123532 | 61 | 73 | 0.9 | 1.7 | 0.00 | 0.00 | 0.00 | 86 | 1018.3 |
| 20260508123028 | 61 | 77 | 0.0 | 0.9 | 0.00 | 0.00 | 0.00 | 86 | 1018.3 |
| 20260508122525 | 61 | 357 | 0.0 | 0.0 | 0.00 | 0.00 | 0.00 | 87 | 1018.3 |
| 20260508122022 | 61 | 358 | 0.0 | 0.0 | 0.00 | 0.00 | 0.00 | 87 | 1018.0 |
| 20260508121520 | 61 | 43 | 0.0 | 0.9 | 0.00 | 0.00 | 0.00 | 86 | 1018.3 |
| 20260508121018 | 61 | 36 | 1.7 | 2.6 | 0.00 | 0.00 | 0.00 | 86 | 1018.0 |
| 20260508120515 | 62 | 1 | 0.0 | 0.9 | 0.00 | 0.00 | 0.00 | 86 | 1018.0 |
| 20260508120013 | 62 | 4 | 0.9 | 1.7 | 0.00 | 0.00 | 0.00 | 87 | 1018.3 |
| 20260508115510 | 62 | 10 | 0.9 | 1.7 | 0.00 | 0.00 | 0.00 | 87 | 1018.3 |
| 20260508115006 | 62 | 1 | 0.0 | 1.7 | 0.00 | 0.00 | 0.00 | 87 | 1018.0 |
| 20260508114504 | 61 | 49 | 0.9 | 2.6 | 0.00 | 0.00 | 0.00 | 87 | 1018.0 |
| 20260508114000 | 61 | 27 | 0.0 | 0.0 | 0.00 | 0.00 | 0.00 | 87 | 1018.0 |
| 20260508113458 | 61 | 16 | 0.0 | 0.9 | 0.00 | 0.00 | 0.00 | 87 | 1018.3 |
| 20260508112955 | 61 | 0 | 0.0 | 1.7 | 0.00 | 0.00 | 0.00 | 87 | 1018.0 |
| 20260508112451 | 61 | 20 | 1.7 | 2.6 | 0.00 | 0.00 | 0.00 | 87 | 1018.0 |
| 20260508111948 | 61 | 0 | 0.0 | 0.9 | 0.00 | 0.00 | 0.00 | 88 | 1018.0 |
| 20260508111445 | 61 | 27 | 0.9 | 1.7 | 0.00 | 0.00 | 0.00 | 88 | 1017.6 |
| 20260508110942 | 61 | 6 | 0.0 | 0.9 | 0.00 | 0.00 | 0.00 | 88 | 1017.6 |
| 20260508110440 | 61 | 354 | 0.0 | 0.0 | 0.00 | 0.00 | 0.00 | 88 | 1018.0 |
| 20260508105939 | 61 | 348 | 0.0 | 0.0 | 0.00 | 0.00 | 0.00 | 88 | 1018.0 |
| 20260508105436 | 61 | 352 | 0.0 | 0.0 | 0.00 | 0.00 | 0.00 | 88 | 1018.0 |
| 20260508104933 | 61 | 6 | 0.0 | 0.0 | 0.00 | 0.00 | 0.00 | 88 | 1018.0 |
| 20260508104431 | 61 | 26 | 0.9 | 0.9 | 0.00 | 0.00 | 0.00 | 88 | 1018.0 |
| 20260508103927 | 61 | 1 | 0.0 | 0.9 | 0.00 | 0.00 | 0.00 | 88 | 1018.0 |
| 20260508103424 | 61 | 359 | 0.0 | 0.9 | 0.00 | 0.00 | 0.00 | 88 | 1017.6 |
| 20260508102921 | 61 | 359 | 0.0 | 1.7 | 0.00 | 0.00 | 0.00 | 88 | 1017.6 |
| 20260508102420 | 61 | 12 | 0.9 | 2.6 | 0.00 | 0.00 | 0.00 | 88 | 1018.0 |
| 20260508101917 | 61 | 356 | 0.0 | 0.0 | 0.00 | 0.00 | 0.00 | 88 | 1018.0 |
| 20260508101414 | 61 | 358 | 0.0 | 0.0 | 0.00 | 0.00 | 0.00 | 89 | 1018.0 |
| 20260508100911 | 61 | 1 | 0.0 | 0.9 | 0.00 | 0.00 | 0.00 | 89 | 1017.6 |
| 20260508100410 | 61 | 9 | 0.0 | 0.9 | 0.00 | 0.00 | 0.00 | 89 | 1017.6 |
| 20260508095905 | 61 | 1 | 0.0 | 0.9 | 0.00 | 0.00 | 0.00 | 89 | 1017.6 |
| 20260508095403 | 61 | 10 | 0.0 | 0.0 | 0.00 | 0.00 | 0.00 | 89 | 1018.0 |
| 20260508094900 | 61 | 354 | 0.0 | 0.0 | 0.00 | 0.00 | 0.00 | 90 | 1018.0 |
| 20260508094356 | 60 | 347 | 0.0 | 1.7 | 0.00 | 0.00 | 0.00 | 90 | 1018.3 |
| 20260508093853 | 60 | 28 | 0.0 | 1.7 | 0.00 | 0.00 | 0.00 | 90 | 1018.3 |
| 20260508093351 | 60 | 339 | 0.0 | 0.0 | 0.00 | 0.00 | 0.00 | 90 | 1018.3 |
| 20260508092848 | 60 | 338 | 0.0 | 0.0 | 0.00 | 0.00 | 0.00 | 90 | 1018.0 |
| 20260508092346 | 60 | 334 | 0.0 | 0.0 | 0.00 | 0.00 | 0.00 | 91 | 1018.0 |
| 20260508091844 | 60 | 338 | 0.0 | 0.0 | 0.00 | 0.00 | 0.00 | 91 | 1018.0 |
| 20260508091340 | 60 | 335 | 0.0 | 0.0 | 0.00 | 0.00 | 0.00 | 91 | 1018.0 |
| 20260508090838 | 60 | 335 | 0.0 | 0.0 | 0.00 | 0.00 | 0.00 | 91 | 1018.0 |
| 20260508090337 | 60 | 335 | 0.0 | 0.0 | 0.00 | 0.00 | 0.00 | 91 | 1018.3 |
| 20260508085832 | 60 | 336 | 0.0 | 0.0 | 0.00 | 0.00 | 0.00 | 91 | 1018.7 |
| 20260508085329 | 60 | 336 | 0.0 | 0.0 | 0.00 | 0.00 | 0.00 | 91 | 1018.3 |
| 20260508084825 | 60 | 336 | 0.0 | 0.0 | 0.00 | 0.00 | 0.00 | 91 | 1018.3 |
| 20260508084322 | 60 | 338 | 0.0 | 0.0 | 0.00 | 0.00 | 0.00 | 90 | 1018.7 |
| 20260508083820 | 60 | 338 | 0.0 | 0.0 | 0.00 | 0.00 | 0.00 | 90 | 1018.3 |
| 20260508083317 | 60 | 335 | 0.0 | 0.0 | 0.00 | 0.00 | 0.00 | 90 | 1018.3 |
| 20260508082816 | 60 | 334 | 0.0 | 0.0 | 0.00 | 0.00 | 0.00 | 90 | 1018.3 |